STARLINK-5968 (56010 NORAD) Tracking and Keplerian Element Data

This shows tracking and keplerian element data for the satellite.

Feedback or suggestion? Click here.




ElementValue
Catalog56010
NameSTARLINK-5968
Epoch Orbit712
Epoch Day127.00001157
Epoch Year2023
RAAN297.4669
Inclination43.0003
Eccentricity0.0001549
Argument of Perigee273.511
Mean Anonmoly9.6959
Mean Motion15.38695771
Decay Rate-0.00922988
L11 56010U 23042AA 23127.00001157 -.00922988 00000+0 -25742-1 0 9992
L22 56010 43.0003 297.4669 0001549 273.5110 9.6959 15.38695771 7125



Live tracking and technical data element details for STARLINK-5968 (NORAD 56010). STARLINK-5968 can be tracked NOW for your location showing map with azimuth and elevation plus other details from your city location.







IsCatalogInMostPopularTable: catalog: 56010, numindb: -1

Insert: records affected: 1


GetName: 56010 STARLINK-5968

Hit Count: inserted at: Sat, 03 Jun 2023 19:08:24 GMT